When you browse on this site, cookies collect data to enhance your experience and personalize the content and advertising you see.
Visit our Privacy Policy to learn more. By continuing to use the site, you agree to this use of cookies and data.

Stündliche Wetter Bolshie Novosyady

Heute, 27 September, Sonntag

Zeit Temperatur Niederschläge Wind Luftdruck Luftfeuchtigkeit
00:00 +16°C° 0 mm 6 m/S 738 mmHg 64%
01:00 +16°C° 0 mm 6 m/S 738 mmHg 65%
02:00 +16°C° 0 mm 6 m/S 738 mmHg 66%
03:00 +16°C° 0 mm 6 m/S 738 mmHg 64%
04:00 +16°C° 0 mm 6 m/S 738 mmHg 62%
05:00 +15°C° 0 mm 6 m/S 738 mmHg 60%
06:00 +15°C° 0 mm 7 m/S 738 mmHg 58%
07:00 +15°C° 0 mm 7 m/S 739 mmHg 57%
08:00 +15°C° 0 mm 7 m/S 739 mmHg 56%
09:00 +16°C° 0 mm 7 m/S 739 mmHg 55%
10:00 +17°C° 0 mm 8 m/S 739 mmHg 55%
11:00 +17°C° 0 mm 8 m/S 739 mmHg 55%
12:00 +18°C° 0 mm 8 m/S 739 mmHg 56%
13:00 +18°C° 0 mm 8 m/S 739 mmHg 57%
14:00 +20°C° 0 mm 8 m/S 739 mmHg 57%
15:00 +18°C° 0.3 mm 7 m/S 739 mmHg 64%
16:00 +16°C° 0.3 mm 6 m/S 739 mmHg 70%
17:00 +15°C° 0.3 mm 6 m/S 739 mmHg 76%
18:00 +15°C° 0.9 mm 6 m/S 739 mmHg 80%
19:00 +14°C° 0.9 mm 6 m/S 740 mmHg 85%
20:00 +14°C° 0.9 mm 6 m/S 740 mmHg 89%
21:00 +13°C° 0.2 mm 5 m/S 741 mmHg 90%
22:00 +13°C° 0.2 mm 5 m/S 741 mmHg 90%
23:00 +12°C° 0.2 mm 4 m/S 741 mmHg 91%

Morgen, 28 September, Montag

Zeit Temperatur Niederschläge Wind Luftdruck Luftfeuchtigkeit
00:00 +12°C° 0 mm 4 m/S 742 mmHg 90%
01:00 +11°C° 0 mm 4 m/S 742 mmHg 89%
02:00 +9°C° 0 mm 5 m/S 743 mmHg 89%
03:00 +10°C° 0.1 mm 4 m/S 743 mmHg 89%
04:00 +10°C° 0.1 mm 4 m/S 743 mmHg 89%
05:00 +10°C° 0.1 mm 4 m/S 744 mmHg 89%
06:00 +10°C° 0 mm 4 m/S 744 mmHg 88%
07:00 +10°C° 0 mm 4 m/S 744 mmHg 88%
08:00 +10°C° 0 mm 4 m/S 745 mmHg 87%
09:00 +11°C° 0 mm 4 m/S 745 mmHg 81%
10:00 +12°C° 0 mm 4 m/S 746 mmHg 75%
11:00 +14°C° 0 mm 4 m/S 746 mmHg 69%
12:00 +14°C° 0 mm 4 m/S 747 mmHg 66%
13:00 +15°C° 0 mm 4 m/S 747 mmHg 62%
14:00 +17°C° 0 mm 4 m/S 747 mmHg 59%
15:00 +16°C° 0 mm 3 m/S 747 mmHg 62%
16:00 +16°C° 0 mm 2 m/S 747 mmHg 66%
17:00 +15°C° 0 mm 2 m/S 747 mmHg 69%
18:00 +14°C° 0 mm 2 m/S 747 mmHg 73%
19:00 +13°C° 0 mm 2 m/S 747 mmHg 78%
20:00 +12°C° 0 mm 2 m/S 747 mmHg 82%
21:00 +10°C° 0 mm 2 m/S 747 mmHg 84%
22:00 +10°C° 0 mm 2 m/S 747 mmHg 86%
23:00 +9°C° 0 mm 2 m/S 748 mmHg 88%

übermorgen, 29 September, Dienstag

Zeit Temperatur Niederschläge Wind Luftdruck Luftfeuchtigkeit
00:00 +9°C° 0 mm 2 m/S 747 mmHg 88%
01:00 +9°C° 0 mm 2 m/S 747 mmHg 89%
02:00 +9°C° 0 mm 2 m/S 747 mmHg 89%
03:00 +9°C° 0 mm 3 m/S 747 mmHg 88%
04:00 +9°C° 0 mm 3 m/S 747 mmHg 87%
05:00 +9°C° 0 mm 3 m/S 747 mmHg 86%
06:00 +10°C° 0 mm 3 m/S 747 mmHg 83%
07:00 +11°C° 0 mm 4 m/S 747 mmHg 79%
08:00 +11°C° 0 mm 4 m/S 747 mmHg 76%
09:00 +13°C° 0 mm 4 m/S 746 mmHg 71%
10:00 +14°C° 0 mm 4 m/S 746 mmHg 67%
11:00 +15°C° 0 mm 4 m/S 746 mmHg 62%
12:00 +17°C° 0 mm 4 m/S 746 mmHg 61%
13:00 +18°C° 0 mm 3 m/S 746 mmHg 60%
14:00 +18°C° 0 mm 3 m/S 746 mmHg 59%
15:00 +18°C° 0 mm 3 m/S 745 mmHg 63%
16:00 +17°C° 0 mm 3 m/S 745 mmHg 66%
17:00 +16°C° 0 mm 3 m/S 745 mmHg 70%
18:00 +14°C° 0 mm 3 m/S 745 mmHg 74%
19:00 +13°C° 0 mm 3 m/S 745 mmHg 78%
20:00 +12°C° 0 mm 4 m/S 745 mmHg 81%
21:00 +12°C° 0 mm 3 m/S 745 mmHg 86%
22:00 +12°C° 0 mm 3 m/S 745 mmHg 90%
23:00 +11°C° 0 mm 3 m/S 745 mmHg 95%

30 September, Mittwoch

Zeit Temperatur Niederschläge Wind Luftdruck Luftfeuchtigkeit
00:00 +11°C° 0 mm 3 m/S 744 mmHg 95%
01:00 +11°C° 0 mm 3 m/S 744 mmHg 95%
02:00 +11°C° 0 mm 4 m/S 743 mmHg 95%
03:00 +10°C° 0 mm 4 m/S 743 mmHg 94%
04:00 +10°C° 0 mm 4 m/S 743 mmHg 93%
05:00 +10°C° 0 mm 4 m/S 743 mmHg 91%
06:00 +10°C° 0 mm 4 m/S 743 mmHg 87%
07:00 +10°C° 0 mm 5 m/S 743 mmHg 83%
08:00 +10°C° 0 mm 5 m/S 743 mmHg 79%
09:00 +12°C° 0 mm 5 m/S 743 mmHg 74%
10:00 +14°C° 0 mm 5 m/S 743 mmHg 69%
11:00 +15°C° 0 mm 5 m/S 743 mmHg 64%
12:00 +15°C° 0 mm 5 m/S 742 mmHg 64%
13:00 +15°C° 0 mm 5 m/S 742 mmHg 65%
14:00 +15°C° 0 mm 5 m/S 742 mmHg 65%
15:00 +14°C° 0 mm 5 m/S 742 mmHg 66%
16:00 +14°C° 0 mm 5 m/S 742 mmHg 68%
17:00 +13°C° 0 mm 5 m/S 742 mmHg 69%
18:00 +13°C° 0 mm 4 m/S 742 mmHg 69%
19:00 +13°C° 0 mm 4 m/S 742 mmHg 70%
20:00 +12°C° 0 mm 4 m/S 743 mmHg 70%
21:00 +12°C° 0 mm 4 m/S 742 mmHg 70%
22:00 +11°C° 0 mm 4 m/S 742 mmHg 70%
23:00 +11°C° 0 mm 4 m/S 742 mmHg 70%

1 Oktober, Donnerstag

Zeit Temperatur Niederschläge Wind Luftdruck Luftfeuchtigkeit
00:00 +11°C° 0 mm 4 m/S 742 mmHg 68%
01:00 +11°C° 0 mm 4 m/S 741 mmHg 66%
02:00 +10°C° 0 mm 4 m/S 741 mmHg 64%
03:00 +10°C° 0 mm 4 m/S 741 mmHg 64%
04:00 +9°C° 0 mm 5 m/S 741 mmHg 64%
05:00 +8°C° 0 mm 5 m/S 741 mmHg 64%
06:00 +8°C° 0 mm 5 m/S 741 mmHg 63%
07:00 +9°C° 0 mm 5 m/S 741 mmHg 62%
08:00 +9°C° 0 mm 5 m/S 741 mmHg 61%
09:00 +10°C° 0 mm 6 m/S 741 mmHg 59%
10:00 +13°C° 0 mm 6 m/S 741 mmHg 56%
11:00 +14°C° 0 mm 7 m/S 741 mmHg 54%
12:00 +15°C° 0 mm 7 m/S 741 mmHg 56%
13:00 +15°C° 0 mm 7 m/S 740 mmHg 59%
14:00 +15°C° 0 mm 7 m/S 740 mmHg 61%
15:00 +15°C° 0 mm 6 m/S 740 mmHg 65%
16:00 +14°C° 0 mm 6 m/S 740 mmHg 68%
17:00 +14°C° 0 mm 5 m/S 740 mmHg 72%
18:00 +14°C° 0 mm 5 m/S 741 mmHg 75%
19:00 +13°C° 0 mm 6 m/S 741 mmHg 78%
20:00 +13°C° 0 mm 6 m/S 741 mmHg 82%
21:00 +13°C° 0 mm 6 m/S 741 mmHg 83%
22:00 +13°C° 0 mm 5 m/S 741 mmHg 85%
23:00 +12°C° 0 mm 5 m/S 741 mmHg 87%

2 Oktober, Freitag

Zeit Temperatur Niederschläge Wind Luftdruck Luftfeuchtigkeit
00:00 +12°C° 0 mm 5 m/S 741 mmHg 87%
01:00 +10°C° 0 mm 5 m/S 741 mmHg 87%
02:00 +10°C° 0 mm 5 m/S 742 mmHg 87%
03:00 +9°C° 0 mm 5 m/S 742 mmHg 87%
04:00 +9°C° 0 mm 5 m/S 742 mmHg 88%
05:00 +8°C° 0 mm 5 m/S 742 mmHg 89%
06:00 +9°C° 0 mm 5 m/S 742 mmHg 84%
07:00 +9°C° 0 mm 5 m/S 742 mmHg 79%
08:00 +10°C° 0 mm 5 m/S 742 mmHg 74%
09:00 +11°C° 0 mm 6 m/S 742 mmHg 71%
10:00 +13°C° 0 mm 6 m/S 742 mmHg 67%
11:00 +14°C° 0 mm 7 m/S 742 mmHg 63%
12:00 +15°C° 0.1 mm 7 m/S 742 mmHg 62%
13:00 +16°C° 0.1 mm 7 m/S 742 mmHg 61%
14:00 +16°C° 0.1 mm 7 m/S 743 mmHg 59%
15:00 +15°C° 0 mm 7 m/S 743 mmHg 64%
16:00 +15°C° 0 mm 7 m/S 743 mmHg 69%
17:00 +14°C° 0 mm 7 m/S 743 mmHg 74%
18:00 +12°C° 0 mm 7 m/S 743 mmHg 73%
19:00 +11°C° 0 mm 7 m/S 743 mmHg 71%
20:00 +11°C° 0 mm 6 m/S 743 mmHg 70%
21:00 +10°C° 0 mm 6 m/S 743 mmHg 72%
22:00 +10°C° 0 mm 6 m/S 743 mmHg 74%
23:00 +9°C° 0 mm 6 m/S 744 mmHg 77%
Mehr zeigen